Regional Weather Roundup
Issued by NWS Little Rock, AR

Home | Current Version | Previous Version | Text Only | Print | Product List | Glossary Off
Versions: 1 2 3 4 5 6 7 8 9 10 11 12 13 14 15 16 17 18 19 20 21 22 23 24 25 26 27 28 29 30 31 32 33 34 35 36 37 38 39 40 41 42 43 44 45 46 47 48 49 50

188
ASUS44 KLZK 102005
RWRLZK

WEATHER ROUNDUP FOR ARKANSAS
NATIONAL WEATHER SERVICE LITTLE ROCK AR
200 PM CST WED FEB 10 2016

NOTE: "FAIR" INDICATES FEW OR NO CLOUDS BELOW 12,000 FEET WITH NO
SIGNIFICANT WEATHER AND/OR OBSTRUCTIONS TO VISIBILITY.

ARZ001-003-010-029-102100-
NORTHWEST ARKANSAS

CITY           SKY/WX    TMP DP  RH WIND       PRES   REMARKS
FAYETTEVILLE   SUNNY     50  21  32 SW15G23   30.06F
FORT SMITH     SUNNY     54  16  22 SW12      30.11F
HARRISON       SUNNY     48  17  29 E5        30.03F
BENTONVILLE    SUNNY    N/A N/A N/A W16G25    30.05F
ROGERS         SUNNY     48  20  32 W16G24    30.04F
SILOAM SPGS    SUNNY     48  19  32 SW17G25   30.06F
HIGHFILL       LGT RAIN  49  21  33 SW17      30.04F
SPRINGDALE     SUNNY     50  19  29 SW15G25   30.07F
$$

ARZ004-005-016-102100-
NORTH CENTRAL ARKANSAS

CITY           SKY/WX    TMP DP  RH WIND       PRES   REMARKS
BATESVILLE     SUNNY     45  14  29 SW9       30.14F
FLIPPIN        SUNNY     45  14  29 SW8       30.06F
MTN HOME       SUNNY     43  14  31 S12       30.07F
$$

ARZ040-041-102100-
WEST CENTRAL ARKANSAS

CITY           SKY/WX    TMP DP  RH WIND       PRES   REMARKS
MENA           SUNNY     55  23  28 W15G22    30.14F
MOUNT IDA      SUNNY     54  18  24 VRB6      30.12F
$$

ARZ009-017-025-026-028-102100-
NORTHEAST ARKANSAS

CITY           SKY/WX    TMP DP  RH WIND       PRES   REMARKS
JONESBORO      SUNNY     36   9  32 S9        30.17F
NEWPORT        SUNNY     42  10  27 S6        30.17F
WALNUT RIDGE   SUNNY     37  10  32 CALM      30.15F
BLYTHEVILLE    CLOUDY    34   9  35 SW8       30.20F WCI  27
NW BLYTHEVILLE CLOUDY    34   9  35 W9        30.19  WCI  26
$$

ARZ022-023-033-042-044-102100-
CENTRAL ARKANSAS

CITY           SKY/WX    TMP DP  RH WIND       PRES   REMARKS
LITTLE ROCK    SUNNY     51  17  26 SW12      30.17F
N LITTLE ROCK  SUNNY     47  19  32 SW8G16    30.17F
JACKSONVILLE   SUNNY     47  15  27 SW8       30.16F
SEARCY         SUNNY     45  17  32 S9        30.19F
HOT SPRINGS    SUNNY     52  20  28 W9G23     30.16F
RUSSELLVILLE   SUNNY     49  16  26 S5        30.13F
CLINTON        FAIR      45  16  31 SW6       30.13F
$$

ARZ036-102100-
EAST ARKANSAS

CITY           SKY/WX    TMP DP  RH WIND       PRES   REMARKS
WEST MEMPHIS   CLOUDY    38  12  34 SW5       30.19F
$$

ARZ050-053-066-070-073-102100-
SOUTHWEST ARKANSAS

CITY           SKY/WX    TMP DP  RH WIND       PRES   REMARKS
ARKADELPHIA    FAIR      54  22  28 W10       30.20F
CAMDEN         SUNNY     55  16  21 SW10      30.21F
TEXARKANA      SUNNY     57  23  26 SW16      30.20F
EL DORADO      SUNNY     55  20  25 SW8       30.21F
DE QUEEN       SUNNY     56  26  31 SW8       30.17F
$$

ARZ056-057-069-102100-
SOUTHEAST ARKANSAS

CITY           SKY/WX    TMP DP  RH WIND       PRES   REMARKS
PINE BLUFF     SUNNY     50  18  28 SW12      30.18F
STUTTGART      SUNNY     45  18  33 SW7       30.21F
MONTICELLO     SUNNY     53  17  24 SW8       30.20F

$$






USA.gov is the U.S. government's official web portal to all federal, state and local government web resources and services.